Location: Joffre
(52.3362°N, 113.5373°W)
Time: 12:30:14
(UTC+00:00)

N. Korean satellite - Pass Details

Date: 02 December 2021
Orbit: 447 x 491 km, 97.3° (Epoch: 21 January)

Event Time Altitude Azimuth Distance (km) Brightness Sun altitude
Rises 13:35:30 0° 7° (N) 2,482 10.1 -15.5°
Reaches altitude 10° 13:37:38 10° 359° (N) 1,598 9.0 -15.2°
Maximum altitude 13:40:49 37° 291° (WNW) 725 6.9 -14.8°
Drops below altitude 10° 13:43:56 10° 223° (SW) 1,575 8.9 -14.3°
Sets 13:46:02 0° 215° (SW) 2,441 10.0 -14.0°
